Weather History for Douglas Bisbee, AZ

Change the Weather History Date:

Monday, November 11, 2013

  Actual Average Record
Temperature  
Mean Temperature 61 °F 55 °F  
Max Temperature 82 °F 73 °F 87 °F (1989)
Min Temperature 39 °F 37 °F 19 °F (1950)
Degree Days  
Heating Degree Days 4 10  
Month to date heating degree days 88 92  
Since 1 July heating degree days 207 175  
Cooling Degree Days 0 0  
Month to date cooling degree days 0 0  
Year to date cooling degree days 1842 1812  
Growing Degree Days 12 (Base 50)    
Moisture  
Dew Point 35 °F    
Average Humidity 42    
Maximum Humidity 62    
Minimum Humidity 21    
Precipitation  
Precipitation 0.00 in 0.02 in 2.35 in (1994)
Month to date precipitation T 0.24  
Year to date precipitation 17.11 11.68  
Snow  
Snow 0.00 in - - ()
Month to date snowfall 0.0  
Snow Depth 0.00 in    
Sea Level Pressure  
Sea Level Pressure 30.02 in    
Wind  
Wind Speed 8 mph (NNE)    
Max Wind Speed 17 mph    
Max Gust Speed 21 mph    
Visibility 10 miles    
Events      
T = Trace of Precipitation, MM = Missing Value Source: NWS Daily Summary

Daily Weather History Graph

Daily Weather History Graph

Search for Another Location

Airport:

Trip Planner

Search our weather history database for the weather conditions in past years. The results will help you decide how hot, cold, wet, or windy it might be!

Date:

Astronomy

Nov. 11, 2013 Rise Set
Actual Time 6:42 AM MST 5:21 PM MST
Civil Twilight 6:17 AM MST 5:47 PM MST
Nautical Twilight 5:48 AM MST 6:16 PM MST
Astronomical Twilight 5:19 AM MST 6:45 PM MST
Moon 1:44 PM MST (11/11) 12:53 AM MST (11/11)
Length of Visible Light 11h 29m
Length of Day
10h 38m
Waxing Gibbous, 67% of the Moon is Illuminated
Nov 11
Waxing Gibbous
Nov 17
Full
Nov 25
Last Quarter
Dec 2
New
Dec 9
First Quarter

Hourly Weather History & Observations

Time (MST) Temp. Windchill Dew Point Humidity Pressure Visibility Wind Dir Wind Speed Gust Speed Precip Events Conditions
12:56 AM 52.0 °F - 34.0 °F 50% 30.00 in 10.0 mi North 8.1 mph - N/A   Clear
1:56 AM 52.0 °F - 34.0 °F 50% 30.00 in 10.0 mi NNE 11.5 mph - N/A   Clear
2:56 AM 55.0 °F - 34.0 °F 45% 29.99 in 10.0 mi NNE 9.2 mph - N/A   Clear
3:56 AM 48.0 °F - 32.0 °F 54% 30.01 in 10.0 mi North 4.6 mph - N/A   Clear
4:56 AM 44.1 °F 39.5 °F 30.9 °F 60% 30.03 in 10.0 mi North 8.1 mph - N/A   Clear
5:56 AM 43.0 °F 41.3 °F 30.0 °F 60% 30.06 in 10.0 mi NNW 3.5 mph - N/A   Clear
6:56 AM 45.0 °F 41.2 °F 32.0 °F 60% 30.09 in 10.0 mi NNW 6.9 mph - N/A   Clear
7:56 AM 57.0 °F - 36.0 °F 45% 30.08 in 10.0 mi NNW 5.8 mph - N/A   Clear
8:56 AM 64.9 °F - 36.0 °F 34% 30.07 in 10.0 mi NNW 9.2 mph - N/A   Clear
9:56 AM 71.1 °F - 37.0 °F 29% 30.06 in 10.0 mi NNW 6.9 mph - N/A   Clear
10:56 AM 77.0 °F - 37.9 °F 24% 30.04 in 10.0 mi Variable 3.5 mph - N/A   Clear
11:56 AM 80.1 °F - 37.0 °F 21% 30.00 in 10.0 mi North - - N/A   Clear
12:56 PM 81.0 °F - 37.0 °F 21% 29.97 in 10.0 mi NNE 8.1 mph - N/A   Clear
1:56 PM 80.1 °F - 37.0 °F 21% 29.95 in 10.0 mi Variable 5.8 mph - N/A   Clear
2:56 PM 81.0 °F - 37.0 °F 21% 29.94 in 10.0 mi East 13.8 mph - N/A   Clear
3:56 PM 80.1 °F - 37.0 °F 21% 29.96 in 10.0 mi East 11.5 mph - N/A   Clear
4:56 PM 77.0 °F - 37.0 °F 24% 29.98 in 10.0 mi NE 9.2 mph - N/A   Clear
5:56 PM 68.0 °F - 36.0 °F 31% 30.02 in 10.0 mi NE 9.2 mph - N/A   Clear
6:56 PM 66.0 °F - 36.0 °F 33% 30.04 in 10.0 mi ENE 8.1 mph - N/A   Clear
7:56 PM 68.0 °F - 37.0 °F 32% 30.02 in 10.0 mi East 9.2 mph - N/A   Clear
8:56 PM 60.1 °F - 36.0 °F 41% 30.04 in 10.0 mi West 5.8 mph - N/A   Clear
9:56 PM 64.0 °F - 37.9 °F 38% 30.04 in 10.0 mi North 4.6 mph - N/A   Clear
10:56 PM 60.1 °F - 36.0 °F 41% 30.04 in 10.0 mi Variable 6.9 mph - N/A   Clear
11:56 PM 54.0 °F - 35.1 °F 49% 30.06 in 10.0 mi NNW 6.9 mph - N/A   Clear